METEOR 2-17 DEB, 38284

Orbit data source: Space-Track

METEOR 2-17 DEB, 38284 is space debris in LEO originally from a launch on Sat, 30 Jan 1988 UTC launched from the Plesetsk Missile And Space Complex (PKMTR). Debris objects in space refer to the collection of defunct objects orbiting the Earth. Examples of debris include non-operational satellites, rocket bodies, and fragments generated from explosions, collisions, or faulty payload assembly.

Loading next visibility...
Identifier
38284, 1988-005AM
Orbit
LEO
Last TLE update
11 months ago
Origin
Manufacturer
Unknown
Mission
Spacecraft
Bus & Motor
Unknown
Mass
Unknown
Launch date (UTC)
1988-01-30 (37 years ago)
Launch vehicle
Unknown
Launch site
Plesetsk Missile And Space Complex (PKMTR)
Object type
Payload
Rocket body
Debris
Shape & HBR
Unknown
Radar Cross Section
Small (<0.1 m²)

Expand to show TLE details & history

TLE from 11 months ago
0 METEOR 2-17 DEB
1 38284U 88005AM  24156.26543218  .00003568  00000-0  24635-2 0  9999
2 38284  82.5280 150.6209 0024314 128.4108 231.9248 13.98778664489619
Epoch: 2024-06-04T06:22Z
Definitive object data (Epoch: 2024-06-04T06:22:13.34Z)
Latitude
-0.00009°
Longitude
161.87571°
Altitude
911.888 km
Speed
7.39 km/s
True Right ascension
10h 02m 29s
True Declination
0° 00' 00"
Sunlit
Object was in daylight at TLE epoch
Visualization TLE readout
Latitude
-56.67162°
Longitude
-126.80258°
Altitude
905.061 km
Speed
7.402 km/s
Apparent Right ascension
08h 50m 06s
Apparent Declination
-74° 15' 49"
Sunlit
Object is in full shadow
Visualization observer readout
Local Sidereal Time
17:10:22
Azimuth
199.178° SSW
Elevation
-47.486°
Doppler factor
1
Orbital elements
Apogee altitude
912.844 km
Perigee altitude
877.476 km
Semi-major axis
7,273.297 km
Eccentricity
0.0024314
Inclination
82.528°
RAAN
150.6209°
Arg. of periapsis
128.4108°
True anomaly
231.70588°
Mean anomaly
231.9248°
Eccentric anomaly
231.8153°
Mean motion
3.49902 °/min
BSTAR
0.0024635
Orbital period
102.89 mins
Loading maneuver chart data...
Loading SW <> Apogee altitude chart data...
Loading historical data...
Loading historical data...
Loading historical data...
Loading historical data...
Loading historical data...
Loading historical data...
Loading historical data...

METEOR 2-17 DEB Visibility forecast

Observer location: undefined°, undefined°

Span
Click to sort rows by Start time (UTC) header in descending order
Start Az.
Max El. time (UTC)
Max El. Az.
Max El.
End time (UTC)
End Az.
5 mins2025-05-09 09:28:06.531Z269.167° W2025-05-09 09:30:06.531Z289.656° WNW12.702°2025-05-09 09:33:06.531Z320.75° NNW
9 mins2025-05-09 18:27:06.531Z5.633° NNE2025-05-09 18:31:06.531Z66.762° ENE39.317°2025-05-09 18:36:06.531Z154.416° SSE
6 mins2025-05-09 20:12:06.531Z304.879° NW2025-05-09 20:14:06.531Z280.745° WNW17.76°2025-05-09 20:18:06.531Z235.373° WSW
10 mins2025-05-10 07:41:06.531Z188.536° SSW2025-05-10 07:46:06.531Z340.683° N44.497°2025-05-10 07:51:06.531Z6.298° NNE
|